Weather History for Poplar Bluff, MO

Change the Weather History Date:

Wednesday, May 16, 2012

  Actual Average Record
Temperature  
Mean Temperature 70 °F -  
Max Temperature 89 °F 80 °F 95 °F (1944)
Min Temperature 53 °F 55 °F 38 °F (1926)
Cooling Degree Days 4    
Growing Degree Days 20 (Base 50)    
Moisture  
Dew Point 54 °F    
Average Humidity 57    
Maximum Humidity 93    
Minimum Humidity 30    
Precipitation  
Precipitation 0.00 in - - ()
Sea Level Pressure  
Sea Level Pressure 29.97 in    
Wind  
Wind Speed 3 mph (NNW)    
Max Wind Speed 17 mph    
Max Gust Speed 23 mph    
Visibility 10 miles    
Events Rain , Thunderstorm    
Averages and records for this station are not official NWS values.
T = Trace of Precipitation, MM = Missing Value Source: NWS Daily Summary

Daily Weather History Graph

Daily Weather History Graph

Search for Another Location

Airport:

Trip Planner

Search our weather history database for the weather conditions in past years. The results will help you decide how hot, cold, wet, or windy it might be!

Date:

Astronomy

May. 16, 2012 Rise Set
Actual Time 5:52 AM CDT 8:03 PM CDT
Civil Twilight 5:23 AM CDT 8:32 PM CDT
Nautical Twilight 4:48 AM CDT 9:07 PM CDT
Astronomical Twilight 4:09 AM CDT 9:46 PM CDT
Moon 3:16 AM CDT (5/16) 4:23 PM CDT (5/16)
Length of Visible Light 15h 08m
Length of Day
14h 10m
Waning Crescent, 16% of the Moon is Illuminated
May 16
Waning Crescent
May 20
New
May 28
First Quarter
Jun 4
Full
Jun 11
Last Quarter

Hourly Weather History & Observations

Time (CDT) Temp. Heat Index Dew Point Humidity Pressure Visibility Wind Dir Wind Speed Gust Speed Precip Events Conditions
12:53 AM 59.0 °F - 55.0 °F 87% 29.99 in 10.0 mi Calm Calm - N/A   Clear
1:53 AM 57.9 °F - 54.0 °F 87% 29.98 in 10.0 mi Calm Calm - N/A   Clear
2:53 AM 57.9 °F - 52.0 °F 81% 29.98 in 10.0 mi Calm Calm - N/A   Clear
3:53 AM 55.9 °F - 52.0 °F 87% 29.98 in 10.0 mi Calm Calm - N/A   Clear
4:53 AM 54.0 °F - 51.1 °F 90% 29.99 in 10.0 mi Calm Calm - N/A   Clear
5:53 AM 53.1 °F - 51.1 °F 93% 30.00 in 9.0 mi Calm Calm - N/A   Clear
6:53 AM 57.9 °F - 52.0 °F 81% 30.01 in 10.0 mi Calm Calm - N/A   Clear
7:53 AM 64.0 °F - 53.1 °F 67% 30.01 in 10.0 mi Calm Calm - N/A   Clear
8:53 AM 71.1 °F - 53.1 °F 53% 30.02 in 10.0 mi WNW 4.6 mph - N/A   Clear
9:53 AM 77.0 °F - 55.0 °F 47% 30.01 in 10.0 mi WSW 4.6 mph - N/A   Clear
10:53 AM 82.0 °F - 51.1 °F 34% 30.00 in 10.0 mi Variable 5.8 mph - N/A   Clear
11:53 AM 84.0 °F - 52.0 °F 33% 29.99 in 10.0 mi WNW 5.8 mph - N/A   Clear
12:53 PM 84.9 °F - 52.0 °F 32% 29.97 in 10.0 mi West 4.6 mph - N/A   Clear
1:53 PM 86.0 °F - 52.0 °F 31% 29.95 in 10.0 mi NE 3.5 mph - N/A   Clear
2:53 PM 86.0 °F - 51.1 °F 30% 29.93 in 10.0 mi Variable 4.6 mph - N/A   Partly Cloudy
3:53 PM 84.9 °F - 52.0 °F 32% 29.91 in 10.0 mi WSW 3.5 mph - N/A   Mostly Cloudy
4:30 PM 75.2 °F - 60.8 °F 61% 29.91 in 2.5 mi NNE 17.3 mph 23.0 mph 0.01 in Rain , Thunderstorm Rain
4:37 PM 77.0 °F - 59.0 °F 54% 29.92 in 6.0 mi NE 8.1 mph - 0.02 in Rain , Thunderstorm Light Rain
5:14 PM 78.8 °F - 60.8 °F 54% 29.93 in 10.0 mi West 6.9 mph 17.3 mph N/A   Partly Cloudy
5:53 PM 80.1 °F 80.7 °F 59.0 °F 48% 29.92 in 10.0 mi West 4.6 mph - N/A   Scattered Clouds
6:53 PM 79.0 °F - 64.9 °F 62% 29.92 in 10.0 mi North 8.1 mph - N/A   Partly Cloudy
7:53 PM 78.1 °F - 55.0 °F 45% 29.93 in 10.0 mi NNE 10.4 mph - N/A   Clear
8:53 PM 75.0 °F - 51.1 °F 43% 29.96 in 10.0 mi NE 6.9 mph - N/A   Clear
9:53 PM 72.0 °F - 50.0 °F 46% 29.98 in 10.0 mi NNE 8.1 mph - N/A   Clear
10:53 PM 66.9 °F - 50.0 °F 54% 29.98 in 10.0 mi NNE 6.9 mph - N/A   Clear
11:53 PM 64.9 °F - 48.9 °F 56% 29.99 in 10.0 mi NNE 6.9 mph - N/A   Clear